STARLINK-34599, 64919

Orbit data source: Space-Track

STARLINK-34599, 64919 is a payload satellite owned by SpaceX/Seattle (US) in LEO that was launched on Sat, 26 Jul 2025 UTC via an FALCON 9 launch vehicle from the Air Force Eastern Test Range (AFETR). Payload-class satellites include a variety of spacecraft equipped with specific instruments for various scientific and technological missions. These include communications satellites like Starlink; space stations such as the ISS; scientific satellites like the Hubble; Earth observation satellites from companies like Planet Labs, Umbra, and HawkEye 360; GPS; miniature CubeSats for education and research; and military/defense satellites.

Loading next visibility...
Identifier
64919, 2025-157R
Orbit
LEO
Country
Flag of USUS
Related business
Manufacturer
SpaceX/Seattle
Mission
Operational spacecraft
Bus & Motor
STARLINK V2MO, Unknown motor
Mass
575 kg wet, ~530 kg dry
Launch date (UTC)
2025-07-26 (4 months ago)
Launch vehicle
FALCON 9
Launch site
Air Force Eastern Test Range (AFETR)
Object type
Payload
Rocket body
Debris
Shape & HBR
Unknown shape, 17.7 m
Radar Cross Section
Large (>1 m²)

Expand to show TLE details & history
Last TLE update: 2 days ago

TLE from 2 days ago
0 STARLINK-34599
1 64919U 25157R   25312.67120159  .00085929  00000-0  21336-2 0  9993
2 64919  53.1587 193.5825 0001082  77.5165 282.5960 15.39626365 17517
Epoch: 2025-11-08T16:06Z
TLE epoch observation values (Epoch: 2025-11-08T16:06:31.817Z)
Latitude
-0.00009°
Longitude
-96.1476°
Altitude
447.956 km
Speed
7.645 km/s
True Right ascension
12h 54m 19s
True Declination
0° 00' 00"
Sunlit
Object was in daylight at epoch
Visualization orbit readout
Latitude
Unknown
Longitude
Unknown
Altitude
Unknown
Speed
Unknown
Apparent Right ascension
Unknown
Apparent Declination
Unknown
Sunlit
N/A
Visualization observer readout
Local Sidereal Time
04:34:12
Azimuth
Unknown
Elevation
Unknown
Doppler factor
Unknown
Orbital elements
Apogee altitude
448.21 km
Perigee altitude
446.732 km
Semi-major axis
6,825.608 km
Eccentricity
0.00011
Inclination
53.1587°
RAAN
193.5825°
Arg. of periapsis
77.5165°
True anomaly
282.5839°
Mean anomaly
282.596°
Eccentric anomaly
282.58995°
Mean motion
3.84885 °/min
Orbital period
93.53 mins
BSTAR
0.0021336
Loading maneuver chart data...
Computing Atmospheric mass density...
Loading historical data...
Loading historical data...
Loading historical data...
Loading historical data...
Loading historical data...
Loading historical data...
Loading historical data...

Documentation

Showing up to 5 results
|